This demonstration page uses our WeatherBlox Daily Observations layout. Learn more.

36.17497, -115.13722

Hourly Observations for August 9, 2018

Temp ( °F °C ) Dew Point ( °F °C ) Humidity (%) Winds ( mph kmh ) Pressure ( in mb ) Visibility ( mi km ) Precip ( " mm )
12:53 am 00:53 Clear 90 32.2 54 12.2 29 29 E 3 6 29.83 1010 10 16.0934 0 0
1:53 am 01:53 Clear 88 31.1 54 12.2 31 31 N 3 6 29.83 1010 10 16.0934 0 0
2:53 am 02:53 Clear 86 30 56 13.3 36 36 N 3 6 29.84 1011 10 16.0934 0 0
3:53 am 03:53 Clear 86 30 57 13.9 37 37 NNW 3 6 29.85 1011 10 16.0934 0 0
4:53 am 04:53 Clear 84 28.9 56 13.3 38 38 N 6 9 29.86 1011 10 16.0934 0 0
5:53 am 05:53 Clear 84 28.9 58 14.4 41 41 NNE 7 11 29.88 1012 10 16.0934 0 0
6:53 am 06:53 Sunny 86 30 62 16.7 45 45 NNE 5 7 29.91 1013 10 16.0934 0 0
7:53 am 07:53 Sunny 89 31.7 62 16.7 41 41 E 7 11 29.93 1013 10 16.0934 0 0
8:53 am 08:53 Sunny 91 32.8 60 15.6 35 35 SSE 5 7 29.93 1014 10 16.0934 0 0
9:53 am 09:53 Sunny 93 33.9 58 14.4 31 31 SSE 6 9 29.94 1014 10 16.0934 0 0
10:53 am 10:53 Sunny 97 36.1 56 13.3 25 25 SE 3 6 29.93 1014 10 16.0934 0 0
11:53 am 11:53 Sunny 99 37.2 58 14.4 26 26 VRB 6 9 29.91 1013 10 16.0934 0 0
12:53 pm 12:53 Sunny 101 38.3 57 13.9 23 23 VRB 5 7 29.89 1012 10 16.0934 0 0
1:53 pm 13:53 Sunny 104 40 54 12.2 19 19 SSW 8 13 29.86 1011 10 16.0934 0 0
2:53 pm 14:53 Sunny 105 40.6 52 11.1 17 17 undefined N/A 29.84 1011 10 16.0934 0 0
3:53 pm 15:53 Sunny 106 41.1 51 10.6 16 16 SSW 5 7 29.82 1010 10 16.0934 0 0
4:53 pm 16:53 Sunny 107 41.7 49 9.4 14 14 SE 9 15 29.8 1009 10 16.0934 0 0
5:53 pm 17:53 Sunny 106 41.1 50 10 15 15 Calm 29.78 1009 10 16.0934 0 0
6:53 pm 18:53 Sunny 106 41.1 51 10.6 16 16 VRB 3 6 29.78 1008 10 16.0934 0 0
7:53 pm 19:53 Clear 104 40 46 7.8 14 14 WNW 6 9 29.78 1009 10 16.0934 0 0
8:53 pm 20:53 Clear 102 38.9 47 8.3 15 15 W 10 17 29.8 1009 10 16.0934 0 0
9:53 pm 21:53 Clear 97 36.1 58 14.4 27 27 SSE 23 37 29.85 1011 10 16.0934 0 0
10:53 pm 22:53 Clear 95 35 57 13.9 28 28 S 26 43 29.86 1011 10 16.0934 0 0
11:53 pm 23:53 Clear 94 34.4 58 14.4 30 30 S 13 20 29.89 1012 10 16.0934 0 0

Powered by AerisWeather